Regional Weather Roundup
Issued by NWS Binghamton, NY

Home | Current Version | Previous Version | Text Only | Print | Product List | Glossary On
Versions: 1 2 3 4 5 6 7 8 9 10 11 12 13 14 15 16 17 18 19 20 21 22 23 24 25 26 27 28 29 30 31 32 33 34 35 36 37 38 39 40 41 42 43 44 45 46 47 48 49 50
000
ASUS41 KBGM 232110
RWRBGM

REGIONAL WEATHER ROUNDUP
NATIONAL WEATHER SERVICE BINGHAMTON NY
500 PM EDT TUE AUG 23 2016

Note: "fair" indicates few or no clouds below 12,000 feet with no
significant weather and/or obstructions to visibility.

* = Station(s) that does not report precipitation, such as rain,
snow, etc, also no thunder or fog.

NYZ009-015>018-022>025-036-037-044>046-055>057-062-232200
...Central New York...

CITY           SKY/WX    TMP DP  RH WIND       PRES   REMARKS
Binghamton     SUNNY     74  53  48 W8        30.29F
Cortland       FAIR      77  55  47 CALM      30.28S
Dansville      SUNNY     81  51  35 VRB3      30.25F
Elmira         SUNNY     79  53  40 VRB5      30.25F
Ithaca         MOSUNNY   78  55  44 VRB6      30.27F
Hamilton       MOSUNNY   79  55  44 CALM      30.27F
Hornell        SUNNY     79  50  36 W6        30.30S
Monticello     MOSUNNY   75  55  50 W9        30.30F
Norwich        MOSUNNY   75  54  46 CALM      30.28S
Oneonta        SUNNY     73  52  46 W5        30.30S
Penn Yan       SUNNY     80  53  39 SW8       30.26F
Rome           SUNNY     76  57  51 W7        30.25F
Sidney         SUNNY     77  57  50 SW5       30.27F
Syracuse       MOSUNNY   79  57  46 SW7       30.23F
$$

PAZ038>040-043-044-047-048-072-232200
...Northeast Pennsylvania...

CITY           SKY/WX    TMP DP  RH WIND       PRES   REMARKS
Hazleton       SUNNY     73  54  49 CALM      30.34F
Scranton       SUNNY     79  51  37 W12       30.28F
$$
&&
KEY
WCI = Wind Chill Index
VSB = Visibility
HX  = Heat Index
$$



USA.gov is the U.S. government's official web portal to all federal, state and local government web resources and services.